This demonstration page uses our WeatherBlox Daily Observations layout. Learn more.

Left ArrowRight Arrow

36.19886, -115.1175

Hourly Observations for August 8, 2020

Temp ( °F °C ) Dew Point ( °F °C ) Humidity (%) Winds ( mph kmh ) Pressure ( in mb ) Visibility ( mi km ) Precip ( " mm )
12:53 am 00:53 Clear 84 28.9 27 -2.8 12 12 Calm 29.85 1011 10 16.0934 0 0
1:53 am 01:53 Clear 82 27.8 32 0 16 16 W 5 7 29.85 1011 10 16.0934 0 0
2:53 am 02:53 Clear 79 26.1 30 -1.1 17 17 NNW 7 11 29.86 1011 10 16.0934 0 0
3:53 am 03:53 Clear 76 24.4 26 -3.3 16 16 NW 7 11 29.88 1012 10 16.0934 0 0
4:53 am 04:53 Clear 75 23.9 27 -2.8 17 17 NW 6 9 29.89 1012 10 16.0934 0 0
5:53 am 05:53 Clear 75 23.9 28 -2.2 18 18 NW 7 11 29.91 1013 10 16.0934 0 0
6:53 am 06:53 Sunny 77 25 29 -1.7 17 17 NNW 8 13 29.93 1014 10 16.0934 0 0
7:53 am 07:53 Sunny 82 27.8 30 -1.1 15 15 NNW 6 9 29.95 1014 10 16.0934 0 0
8:53 am 08:53 Sunny 88 31.1 25 -3.9 10 10 E 5 7 29.96 1014 10 16.0934 0 0
9:53 am 09:53 Sunny 91 32.8 24 -4.4 9 9 ESE 6 9 29.95 1014 10 16.0934 0 0
10:53 am 10:53 Sunny 94 34.4 23 -5 8 8 VRB 6 9 29.95 1014 10 16.0934 0 0
11:53 am 11:53 Sunny 96 35.6 24 -4.4 7 7 ESE 8 13 29.93 1014 10 16.0934 0 0
12:53 pm 12:53 Sunny 99 37.2 25 -3.9 7 7 ESE 10 17 29.92 1013 10 16.0934 0 0
1:53 pm 13:53 Sunny 101 38.3 24 -4.4 6 6 SE 13 20 29.89 1012 10 16.0934 0 0
2:53 pm 14:53 Sunny 102 38.9 25 -3.9 6 6 SE 13 20 29.87 1012 10 16.0934 0 0
3:53 pm 15:53 Sunny 103 39.4 24 -4.4 6 6 ESE 7 11 29.85 1011 10 16.0934 0 0
4:53 pm 16:53 Sunny 103 39.4 23 -5 6 6 ESE 8 13 29.83 1010 10 16.0934 0 0
5:53 pm 17:53 Sunny 102 38.9 22 -5.6 6 6 ESE 7 11 29.82 1010 10 16.0934 0 0
6:53 pm 18:53 Sunny 101 38.3 24 -4.4 6 6 E 12 19 29.81 1009 10 16.0934 0 0
7:53 pm 19:53 Clear 98 36.7 23 -5 7 7 E 12 19 29.81 1010 10 16.0934 0 0
8:53 pm 20:53 Clear 97 36.1 25 -3.9 7 7 ESE 9 15 29.82 1010 10 16.0934 0 0
9:53 pm 21:53 Clear 96 35.6 26 -3.3 8 8 NW 5 7 29.84 1010 10 16.0934 0 0
10:53 pm 22:53 Clear 91 32.8 28 -2.2 10 10 WSW 3 6 29.85 1011 10 16.0934 0 0
11:53 pm 23:53 Clear 89 31.7 29 -1.7 11 11 SSW 5 7 29.85 1011 10 16.0934 0 0

Powered by AerisWeather